Regional Weather Roundup
Issued by NWS

Home | Current Version | Previous Version | Text Only | Print | Product List | Glossary Off
Versions: 1 2 3 4 5 6 7 8 9 10 11 12 13 14 15 16 17 18 19 20 21 22 23 24 25 26 27 28 29 30 31 32 33 34 35 36 37 38 39 40 41 42 43 44 45 46 47 48 49 50

000
ASUS43 KFSD 271010
RWRSD

WEATHER ROUNDUP FOR SOUTH DAKOTA
NATIONAL WEATHER SERVICE SIOUX FALLS SD
500 AM CDT THU JUL 27 2017

NOTE: "FAIR" INDICATES FEW OR NO CLOUDS BELOW 12,000 FEET WITH NO
SIGNIFICANT WEATHER AND/OR OBSTRUCTIONS TO VISIBILITY.


SDZ001>005-009-010-012>017-271100-
NORTHWEST AND NORTH CENTRAL SOUTH DAKOTA

CITY           SKY/WX    TMP DP  RH WIND       PRES   REMARKS
BUFFALO          N/A     66  53  63 S10       30.05F
FAITH            N/A     62  53  72 S14       30.12F
MOBRIDGE       CLEAR     62  58  86 E8        30.11S
$$

SDZ012>016-024>037-041>051-057-063-072>074-271100-
SOUTHWEST AND SOUTH CENTRAL SOUTH DAKOTA

CITY           SKY/WX    TMP DP  RH WIND       PRES   REMARKS
RAPID CTY ARPT CLOUDY    65  55  70 S5        30.15F
PIERRE         CLEAR     59  54  83 NE3       30.11F
CUSTER         CLOUDY    63  56  78 VRB5      30.28F
ELLSWORTH AFB  MOCLDY    69  56  63 S9        30.14F
PHILIP         PTCLDY    69  56  62 CALM      30.12F
PINE RIDGE     CLOUDY    71  61  70 VRB6      30.16F
SPEARFISH      FAIR      72  54  53 SW5       30.15F
WINNER         FAIR      65  59  81 CALM      30.13F
$$

SDZ004>011-016>023-039-040-271100-
NORTHEAST SOUTH DAKOTA

CITY           SKY/WX    TMP DP  RH WIND       PRES   REMARKS
ABERDEEN       CLEAR     58  57  97 N3        30.13R
WATERTOWN      CLEAR     57  56  96 N6        30.12F
BROOKINGS      CLEAR     60  59  96 CALM      30.12S
SISSETON         N/A     58  56  93 W5        30.11S
$$

SDZ017-020-022-023-036>040-048>070-271100-
SOUTHEAST SOUTH DAKOTA

CITY           SKY/WX    TMP DP  RH WIND       PRES   REMARKS
SIOUX FALLS    CLEAR     60  59  96 CALM      30.10S
HURON          CLEAR     58  58 100 N3        30.11S
CHAMBERLAIN    CLEAR     61  61 100 CALM      30.12F
MITCHELL       CLEAR     62  61  96 CALM      30.11S
YANKTON        CLEAR     62  60  93 NW7       30.10R
$$

ABBREVIATIONS USED IN REMARKS
   TC - TEMPERATURE IN CELSIUS
  WCI - WIND CHILL INDEX
   HX - HEAT INDEX
  VSB - VISIBILITY





USA.gov is the U.S. government's official web portal to all federal, state and local government web resources and services.